TimeEST,TemperatureF,Dew PointF,Humidity,Sea Level PressureIn,VisibilityMPH,Wind Direction,Wind SpeedMPH,Gust SpeedMPH,PrecipitationIn,Events,Conditions,WindDirDegrees,DateUTC
12:27 AM,37.4,35.6,93,29.73,2.5,Calm,Calm,-,N/A,,Partly Cloudy,0,2013-02-12 05:27:00
12:44 AM,35.6,33.8,93,29.74,1.5,Calm,Calm,-,N/A,,Clear,0,2013-02-12 05:44:00
12:53 AM,35.1,34.0,96,29.75,0.8,SW,4.6,-,N/A,,Clear,230,2013-02-12 05:53:00
1:01 AM,35.6,35.6,100,29.73,2.0,Variable,3.5,-,N/A,,Clear,0,2013-02-12 06:01:00
1:10 AM,37.4,37.4,100,29.73,10.0,West,8.1,-,N/A,,Clear,270,2013-02-12 06:10:00
1:53 AM,41.0,34.0,76,29.76,10.0,West,12.7,21.9,N/A,,Clear,280,2013-02-12 06:53:00
2:53 AM,39.9,24.1,53,29.78,10.0,WNW,16.1,21.9,N/A,,Clear,290,2013-02-12 07:53:00
3:53 AM,39.0,24.1,55,29.80,10.0,West,6.9,17.3,N/A,,Partly Cloudy,270,2013-02-12 08:53:00
4:53 AM,39.9,24.1,53,29.81,10.0,West,9.2,17.3,N/A,,Mostly Cloudy,280,2013-02-12 09:53:00
5:53 AM,39.9,24.1,53,29.82,10.0,West,9.2,-,N/A,,Overcast,280,2013-02-12 10:53:00
6:53 AM,39.0,24.1,55,29.84,10.0,West,8.1,-,N/A,,Overcast,270,2013-02-12 11:53:00
7:53 AM,39.0,23.0,53,29.86,10.0,West,6.9,-,N/A,,Partly Cloudy,260,2013-02-12 12:53:00
8:53 AM,41.0,23.0,49,29.88,10.0,WNW,12.7,20.7,N/A,,Partly Cloudy,290,2013-02-12 13:53:00
9:53 AM,41.0,23.0,49,29.89,10.0,WNW,10.4,17.3,N/A,,Overcast,290,2013-02-12 14:53:00
10:53 AM,42.1,23.0,47,29.90,10.0,WNW,15.0,24.2,N/A,,Overcast,290,2013-02-12 15:53:00
11:53 AM,42.1,24.1,49,29.92,10.0,WNW,16.1,23.0,N/A,,Overcast,290,2013-02-12 16:53:00
12:53 PM,42.1,23.0,47,29.92,10.0,West,12.7,-,N/A,,Overcast,280,2013-02-12 17:53:00
1:53 PM,43.0,23.0,45,29.92,10.0,WNW,12.7,21.9,N/A,,Mostly Cloudy,290,2013-02-12 18:53:00
2:53 PM,42.1,23.0,47,29.90,10.0,WNW,13.8,25.3,N/A,,Overcast,290,2013-02-12 19:53:00
3:53 PM,41.0,23.0,49,29.90,10.0,NW,12.7,17.3,N/A,,Overcast,320,2013-02-12 20:53:00
4:53 PM,41.0,24.1,51,29.89,10.0,West,6.9,-,N/A,,Mostly Cloudy,280,2013-02-12 21:53:00
5:53 PM,39.9,24.1,53,29.95,10.0,Variable,4.6,-,N/A,,Overcast,0,2013-02-12 22:53:00
6:53 PM,39.0,23.0,53,29.98,10.0,West,12.7,19.6,N/A,,Overcast,280,2013-02-12 23:53:00
7:53 PM,37.9,23.0,55,29.99,10.0,West,4.6,-,N/A,,Overcast,280,2013-02-13 00:53:00
8:53 PM,37.0,23.0,57,29.96,10.0,WNW,4.6,-,N/A,,Clear,290,2013-02-13 01:53:00
9:53 PM,33.1,24.1,70,29.95,10.0,Calm,Calm,-,N/A,,Clear,0,2013-02-13 02:53:00
10:53 PM,30.9,24.1,76,29.94,10.0,Calm,Calm,-,N/A,,Clear,0,2013-02-13 03:53:00
11:53 PM,30.0,23.0,75,29.96,10.0,Calm,Calm,-,N/A,,Clear,0,2013-02-13 04:53:00